User: anonymous   Login
Location: Mount Kobau Star Party
(49.1167°N, 119.7333°W)
Time: 06:56:59
(UTC-07:00)
Language:

TSX-5 - Orbit

View from above orbital plane
View from above orbital plane
View from above satellite
View from above satellite

Ground track
Ground track

The orbit data is extracted from the following two-line orbital elements,

1 26374U 00030A   15242.21767625  .00004956  00000-0  42312-3 0  9994
2 26374 068.9321 224.1170 0671059 298.7434 138.3066 14.00459618763949
Epoch (UTC): 30 August 2015 05:13:27
Eccentricity: 0.0671059
inclination: 68.9321°
perigee height: 404 km
apogee height: 1380 km
right ascension of ascending node: 224.1170°
argument of perigee: 298.7434°
revolutions per day: 14.00459618
mean anomaly at epoch: 138.3066°
orbit number at epoch: 76394

The dashed part of the orbit path shows where the satellite is in the earth's shadow,  

DLR